| time (UTC) | temp F | wind direction | speed MPH | gust MPH | rain 1hr in | rain 24hr in | rain mn in | humidity % | barometer mb |
| 20260503214515 | 84 | 0.0 | 2.0 | 0.00 | 0.02 | 0.02 | 100 | 1011.2 | |
| 20260503213515 | 84 | 0.0 | 1.0 | 0.00 | 0.02 | 0.02 | 100 | 1011.4 | |
| 20260503212517 | 83 | 0.0 | 1.0 | 0.00 | 0.02 | 0.02 | 100 | 1011.4 | |
| 20260503211517 | 83 | 0.0 | 3.0 | 0.00 | 0.02 | 0.02 | 100 | 1011.5 | |
| 20260503210517 | 84 | 0.0 | 1.0 | 0.00 | 0.02 | 0.02 | 100 | 1011.7 | |
| 20260503205537 | 83 | 0.0 | 1.0 | 0.00 | 0.02 | 0.02 | 100 | 1011.7 | |
| 20260503204517 | 82 | 0.0 | 1.0 | 0.00 | 0.02 | 0.02 | 100 | 1011.9 | |
| 20260503203517 | 82 | 0.0 | 1.0 | 0.00 | 0.02 | 0.02 | 100 | 1012.0 | |
| 20260503202517 | 81 | 0.0 | 1.0 | 0.00 | 0.02 | 0.02 | 100 | 1012.1 | |
| 20260503201517 | 80 | 0.0 | 2.0 | 0.00 | 0.02 | 0.02 | 100 | 1012.2 | |
| 20260503200537 | 79 | 0.0 | 3.0 | 0.00 | 0.02 | 0.02 | 100 | 1012.4 | |
| 20260503195517 | 80 | 23 | 1.0 | 4.0 | 0.00 | 0.02 | 0.02 | 100 | 1012.4 |
| 20260503194517 | 80 | 0.0 | 2.0 | 0.00 | 0.02 | 0.02 | 100 | 1012.6 | |
| 20260503193516 | 80 | 0.0 | 2.0 | 0.00 | 0.02 | 0.02 | 100 | 1012.8 | |
| 20260503192517 | 79 | 68 | 1.0 | 4.0 | 0.00 | 0.02 | 0.02 | 100 | 1012.9 |
| 20260503191537 | 78 | 0.0 | 1.0 | 0.00 | 0.02 | 0.02 | 100 | 1013.0 | |
| 20260503190517 | 77 | 0.0 | 1.0 | 0.00 | 0.02 | 0.02 | 100 | 1013.0 | |
| 20260503185517 | 77 | 0.0 | 3.0 | 0.00 | 0.02 | 0.02 | 100 | 1013.2 | |
| 20260503184517 | 75 | 0.0 | 2.0 | 0.00 | 0.02 | 0.02 | 100 | 1013.3 | |
| 20260503183517 | 74 | 0.0 | 1.0 | 0.00 | 0.02 | 0.02 | 100 | 1013.3 | |
| 20260503182517 | 73 | 0.0 | 1.0 | 0.00 | 0.02 | 0.02 | 100 | 1013.4 | |
| 20260503181517 | 72 | 0.0 | 1.0 | 0.00 | 0.02 | 0.02 | 100 | 1013.6 | |
| 20260503180516 | 70 | 0.0 | 1.0 | 0.00 | 0.02 | 0.02 | 100 | 1013.5 | |
| 20260503175516 | 69 | 0.0 | 1.0 | 0.00 | 0.02 | 0.02 | 100 | 1013.7 | |
| 20260503174536 | 69 | 0.0 | 4.0 | 0.00 | 0.02 | 0.02 | 100 | 1013.7 | |
| 20260503173516 | 69 | 0.0 | 3.0 | 0.00 | 0.02 | 0.02 | 100 | 1013.9 | |
| 20260503172516 | 68 | 0.0 | 1.0 | 0.00 | 0.02 | 0.02 | 100 | 1013.8 | |
| 20260503171517 | 68 | 0.0 | 1.0 | 0.00 | 0.02 | 0.02 | 100 | 1013.9 | |
| 20260503170516 | 67 | 225 | 1.0 | 4.0 | 0.00 | 0.02 | 0.02 | 100 | 1013.9 |
| 20260503150516 | 54 | 0.0 | 0.0 | 0.00 | 0.08 | 0.02 | 100 | 1014.3 | |
| 20260503130516 | 51 | 0.0 | 0.0 | 0.00 | 0.08 | 0.02 | 100 | 1013.7 | |
| 20260503110515 | 53 | 0.0 | 0.0 | 0.00 | 0.10 | 0.02 | 100 | 1014.2 | |
| 20260503081517 | 57 | 0.0 | 0.0 | 0.00 | 0.08 | 0.00 | 100 | 1014.1 | |
| 20260503080517 | 57 | 0.0 | 0.0 | 0.00 | 0.08 | 0.00 | 100 | 1014.1 | |
| 20260503072537 | 58 | 0.0 | 0.0 | 0.00 | 0.08 | 0.00 | 100 | 1014.2 | |
| 20260503071517 | 58 | 0.0 | 0.0 | 0.00 | 0.08 | 0.00 | 100 | 1014.3 | |
| 20260503070517 | 58 | 0.0 | 0.0 | 0.00 | 0.08 | 0.00 | 100 | 1014.1 | |
| 20260503054516 | 60 | 0.0 | 0.0 | 0.00 | 0.09 | 0.08 | 100 | 1013.9 | |
| 20260503053517 | 61 | 0.0 | 0.0 | 0.00 | 0.09 | 0.08 | 100 | 1013.9 | |
| 20260503052516 | 61 | 0.0 | 0.0 | 0.00 | 0.11 | 0.08 | 100 | 1013.9 | |
| 20260503051516 | 61 | 0.0 | 0.0 | 0.00 | 0.11 | 0.08 | 100 | 1013.9 | |
| 20260503050517 | 61 | 0.0 | 0.0 | 0.00 | 0.11 | 0.08 | 100 | 1013.8 | |
| 20260503045517 | 62 | 0.0 | 0.0 | 0.00 | 0.11 | 0.08 | 100 | 1013.8 | |
| 20260503044517 | 62 | 0.0 | 0.0 | 0.00 | 0.11 | 0.08 | 100 | 1013.7 | |
| 20260503043516 | 62 | 0.0 | 0.0 | 0.00 | 0.11 | 0.08 | 100 | 1013.6 | |
| 20260503042517 | 63 | 0.0 | 0.0 | 0.00 | 0.11 | 0.08 | 100 | 1013.5 | |
| 20260503041516 | 63 | 0.0 | 0.0 | 0.00 | 0.11 | 0.08 | 100 | 1013.5 | |
| 20260503040517 | 64 | 0.0 | 0.0 | 0.00 | 0.11 | 0.08 | 100 | 1013.2 | |
| 20260503035516 | 65 | 0.0 | 0.0 | 0.00 | 0.11 | 0.08 | 100 | 1013.1 | |
| 20260503034517 | 65 | 0.0 | 0.0 | 0.00 | 0.11 | 0.08 | 100 | 1012.9 | |
| 20260503033537 | 66 | 0.0 | 0.0 | 0.00 | 0.11 | 0.08 | 100 | 1012.8 | |
| 20260503032516 | 66 | 0.0 | 0.0 | 0.00 | 0.11 | 0.08 | 100 | 1012.9 | |
| 20260503031516 | 67 | 0.0 | 0.0 | 0.00 | 0.11 | 0.08 | 100 | 1012.7 | |
| 20260503030516 | 68 | 0.0 | 0.0 | 0.00 | 0.11 | 0.08 | 100 | 1012.8 | |
| 20260503025516 | 68 | 0.0 | 0.0 | 0.00 | 0.11 | 0.08 | 100 | 1012.6 | |
| 20260503024517 | 69 | 0.0 | 0.0 | 0.00 | 0.11 | 0.08 | 100 | 1012.4 | |
| 20260503023516 | 69 | 0.0 | 0.0 | 0.00 | 0.11 | 0.08 | 100 | 1012.3 | |
| 20260503022536 | 70 | 0.0 | 0.0 | 0.00 | 0.11 | 0.08 | 100 | 1012.3 | |
| 20260503021516 | 70 | 0.0 | 0.0 | 0.00 | 0.11 | 0.08 | 100 | 1012.3 | |
| 20260503020556 | 71 | 0.0 | 0.0 | 0.00 | 0.11 | 0.08 | 100 | 1012.3 | |
| 20260503015557 | 72 | 0.0 | 0.0 | 0.00 | 0.11 | 0.08 | 100 | 1012.3 | |
| 20260503014516 | 72 | 0.0 | 1.0 | 0.00 | 0.11 | 0.08 | 100 | 1012.4 | |
| 20260503013517 | 73 | 0.0 | 0.0 | 0.00 | 0.11 | 0.08 | 100 | 1012.4 | |
| 20260503012516 | 74 | 0.0 | 0.0 | 0.00 | 0.11 | 0.08 | 100 | 1012.3 | |
| 20260503011516 | 75 | 0.0 | 1.0 | 0.00 | 0.11 | 0.08 | 100 | 1012.5 | |
| 20260503010516 | 77 | 0.0 | 0.0 | 0.00 | 0.11 | 0.08 | 100 | 1012.5 | |
| 20260503005536 | 79 | 0.0 | 0.0 | 0.00 | 0.12 | 0.08 | 100 | 1012.5 | |
| 20260503004516 | 79 | 0.0 | 0.0 | 0.00 | 0.12 | 0.08 | 100 | 1012.5 | |
| 20260503003516 | 78 | 0.0 | 0.0 | 0.00 | 0.12 | 0.08 | 100 | 1012.5 | |
| 20260503002537 | 78 | 0.0 | 1.0 | 0.00 | 0.12 | 0.08 | 100 | 1012.5 | |
| 20260503001516 | 79 | 0.0 | 2.0 | 0.00 | 0.12 | 0.08 | 100 | 1012.6 | |
| 20260503000516 | 78 | 0.0 | 4.0 | 0.00 | 0.12 | 0.08 | 100 | 1012.8 | |
| 20260502235516 | 77 | 68 | 1.0 | 3.0 | 0.00 | 0.12 | 0.08 | 100 | 1013.0 |
| 20260502234536 | 78 | 68 | 1.0 | 3.0 | 0.00 | 0.12 | 0.08 | 100 | 1013.1 |
| 20260502233516 | 78 | 90 | 1.0 | 3.0 | 0.00 | 0.12 | 0.08 | 100 | 1013.3 |
| 20260502232516 | 78 | 0.0 | 1.0 | 0.00 | 0.12 | 0.08 | 100 | 1013.4 | |
| 20260502231516 | 79 | 90 | 1.0 | 3.0 | 0.00 | 0.12 | 0.08 | 100 | 1013.4 |
| 20260502230515 | 79 | 0.0 | 1.0 | 0.00 | 0.12 | 0.08 | 100 | 1013.6 | |
| 20260502225516 | 79 | 0.0 | 1.0 | 0.00 | 0.12 | 0.08 | 100 | 1013.8 | |
| 20260502224516 | 78 | 0.0 | 1.0 | 0.00 | 0.12 | 0.08 | 100 | 1013.9 | |
| 20260502223515 | 76 | 0.0 | 1.0 | 0.00 | 0.12 | 0.08 | 100 | 1014.1 | |
| 20260502222536 | 76 | 90 | 1.0 | 2.0 | 0.00 | 0.12 | 0.08 | 100 | 1014.2 |
| 20260502221515 | 76 | 0.0 | 2.0 | 0.00 | 0.12 | 0.08 | 100 | 1014.3 | |
| 20260502220516 | 76 | 90 | 1.0 | 2.0 | 0.00 | 0.12 | 0.08 | 100 | 1014.3 |
| 20260502215515 | 76 | 0.0 | 2.0 | 0.00 | 0.12 | 0.08 | 100 | 1014.5 |